TIME,DELAY(SENSOR),PRES,OXYGEN,RAWTEMP,T(OPTODE),TCPHASE,FLUOR,BETA(BETA700),BETA(BETA412),BETA(BETA440),CDOM,C(CSC),ED(ED412.20),ED(ED444.00),ED(ED489.60),ED(ED554.30),LU(LU412.10),LU(LU443.90),LU(LU489.70),LU(LU554.70),COMP,TILTX,TILTY,CHECK
1359256236,5809,915.7000122070312000,35.3981590270996100,562.6356811523438000,4.4041819572448730,56.2478103637695300,55,98,100,78,81,15542,0,0,0,0,2147120329,2147778441,2147578203,2147570633,3169,2,13,39780
1359259832,5810,970.6099853515625000,41.1714096069335940,570.0341796875000000,4.1744980812072750,55.4446296691894500,54,98,101,78,81,15539,0,0,0,0,2147119323,2147774665,2147577225,2147568914,1083,2,13,51124
1359263432,5810,981.7299804687500000,43.0826797485351560,572.0452880859375000,4.1119818687438965,55.1872482299804700,55,98,99,78,81,15541,0,0,0,0,2147124992,2147774985,2147576292,2147568886,281,3,13,29030
1359267032,5811,990.4199829101562000,42.5777587890625000,571.9263916015625000,4.1156811714172360,55.2545013427734400,55,97,100,77,82,15542,0,0,0,0,2147121627,2147773696,2147575076,2147569106,3568,3,13,54276
1359270632,5807,996.7000122070312000,42.4412612915039060,571.8875122070312000,4.1168899536132810,55.2738609313964840,55,98,100,78,82,15538,0,0,0,0,2147122944,2147776658,2147577380,2147567460,3578,2,13,59977
1359274232,5809,1000.7299804687500000,42.1342811584472660,571.8820800781250000,4.1170601844787600,55.3175086975097660,55,98,99,77,83,15538,0,0,0,0,2147120283,2147772763,2147577600,2147567058,3566,2,13,44292
1359277832,5810,995.5999755859375000,42.0477409362793000,571.8723144531250000,4.1173648834228520,55.3345909118652340,55,99,100,78,82,15536,0,0,0,0,2147120201,2147776091,2147585033,2147565613,2709,2,13,17008
1359281432,5808,1003.9799804687500000,41.8893508911132800,571.8618774414062000,4.1176872253417970,55.3527107238769500,55,98,99,77,82,15538,0,0,0,0,2147122541,2147778285,2147582372,2147570514,3536,2,13,22840
1359285032,5811,1000.0800170898438000,42.0149307250976560,571.9686279296875000,4.1143679618835450,55.3404083251953100,55,100,100,78,82,15538,0,0,0,0,2147122432,2147775899,2147580370,2147566829,31,2,13,12737
1359288632,5812,995.2199707031250000,42.9586105346679700,573.2598876953125000,4.0742130279541020,55.2166099548339840,54,99,100,77,81,15535,0,0,0,0,2147126162,2147777782,2147581613,2147568640,154,3,13,24395
1359292232,5811,998.3599853515625000,43.0282707214355500,573.3137207031250000,4.0725398063659670,55.2054595947265600,55,100,102,78,82,15536,0,0,0,0,2147120941,2147771072,2147575616,2147569984,213,2,13,40737
1359295832,5811,1000.3800048828125000,43.5099296569824200,573.9431152343750000,4.0529627799987790,55.1457595825195300,55,100,100,77,82,15537,0,0,0,0,2147121536,2147775597,2147575469,2147568886,142,2,13,8958
1359299432,5809,1003.9699707031250000,43.1845283508300800,573.6068115234375000,4.0634207725524900,55.1878204345703100,55,98,100,78,81,15533,0,0,0,0,2147122212,2147779282,2147578112,2147568603,3492,2,13,58790
1359303032,5810,1009.9400024414062000,43.1394309997558600,573.3057861328125000,4.0727839469909670,55.1913986206054700,54,98,99,78,81,15535,0,0,0,0,2147121545,2147775771,2147576804,2147569152,140,2,13,9962
1359306632,5807,1010.6099853515625000,41.8478507995605500,571.9464111328125000,4.1150608062744140,55.3613014221191400,55,97,99,78,82,15535,0,0,0,0,2147122825,2147779474,2147580461,2147569234,175,2,13,22723
1359310232,5811,1008.6699829101562000,41.8007202148437500,572.3853149414062000,4.1014142036437990,55.3770484924316400,54,100,100,79,83,15534,0,0,0,0,2147122624,2147774646,2147577398,2147566957,123,3,13,39275
1359313832,5810,1007.2800292968750000,42.6279792785644500,573.2122192382812000,4.0756969451904300,55.2626609802246100,54,98,101,78,82,15533,0,0,0,0,2147118811,2147776585,2147577526,2147569133,125,2,13,22474
1359317432,5810,1002.4699707031250000,42.7893905639648440,573.4672851562500000,4.0677618980407715,55.2406501770019500,55,98,100,78,82,15536,0,0,0,0,2147124242,2147773348,2147576246,2147569837,91,3,13,4403
1359321032,5812,1003.3800048828125000,42.8840904235839840,573.5460815429688000,4.0653109550476070,55.2314491271972660,55,98,99,78,81,15535,0,0,0,0,2147121984,2147774592,2147576210,2147565412,165,2,13,17698
1359324632,5812,1003.6500244140625000,42.7058906555175800,573.8176879882812000,4.0568618774414060,55.2588996887207000,55,98,100,78,83,15533,0,0,0,0,2147124022,2147782784,2147580589,2147567981,3532,2,13,54814
1359328232,5810,998.9600219726562000,43.4703102111816400,574.4387207031250000,4.0375418663024900,55.1545181274414060,55,99,100,78,82,15533,0,0,0,0,2147122998,2147770779,2147579574,2147568091,146,2,13,11673
1359331832,5809,1014.9799804687500000,42.5078201293945300,572.3638916015625000,4.1020770072937010,55.2731094360351560,55,98,100,78,82,15532,0,0,0,0,2147123584,2147778779,2147576393,2147568676,4,2,13,58005
1359335432,5809,1013.5999755859375000,41.8620491027832000,572.0645751953125000,4.1113829612731930,55.3629302978515600,55,98,101,78,82,15529,0,0,0,0,2147120603,2147778386,2147578779,2147569865,3209,2,13,7729
1359339032,5810,1006.8099975585938000,42.0922317504882800,572.5880126953125000,4.0951099395751950,55.3364295959472660,55,99,100,79,81,15529,0,0,0,0,2147120676,2147778276,2147577645,2147568896,3595,2,13,27786
1359342632,5808,1009.7100219726562000,42.8484306335449200,573.0756835937500000,4.0799431800842285,55.2317008972168000,53,98,100,78,82,15515,0,0,0,0,2147124589,2147772736,2147578048,2147570249,328,2,13,28874
1359346232,5812,1011.4699707031250000,41.7505493164062500,571.9625244140625000,4.1145610809326170,55.3798217773437500,54,101,101,77,82,15523,0,0,0,0,2147122907,2147774482,2147577801,2147569782,2936,3,13,17786
1359349832,5810,1014.4899902343750000,41.7170982360839840,571.9481201171875000,4.1150050163269040,55.3804702758789060,56,100,100,79,82,15521,0,0,0,0,2147122733,2147779867,2147576768,2147566966,3378,3,13,20337
1359353432,5808,1012.0800170898438000,42.0003585815429700,571.9896240234375000,4.1137161254882810,55.3441886901855500,54,98,101,78,82,15523,0,0,0,0,2147122386,2147774784,2147571236,2147566354,3558,2,13,63369
1359357032,5809,1013.0599975585938000,42.1046791076660160,573.1464843750000000,4.0777378082275390,55.3368682861328100,55,99,100,81,80,15520,0,0,0,0,2147122468,2147775469,2147574336,2147567341,3593,2,13,59961
1359360632,5807,1010.9199829101562000,42.3404502868652340,573.5075073242188000,4.0665111541748050,55.3060493469238300,54,98,100,78,82,15521,0,0,0,0,2147121782,2147777782,2147578349,2147571309,241,2,13,22208
1359364232,5809,1013.1199951171875000,42.4909706115722660,573.4102172851562000,4.0695381164550780,55.2830505371093750,54,99,100,78,82,15525,0,0,0,0,2147121892,2147771364,2147579099,2147568548,127,2,13,8835
1359367832,5808,1010.0700073242188000,41.7405204772949200,573.2603759765625000,4.0741977691650390,55.3946113586425800,56,98,99,78,82,15521,0,0,0,0,2147124224,2147776054,2147576713,2147567469,436,2,13,59047
1359371432,5811,1017.6500244140625000,42.7364501953125000,573.2122192382812000,4.0756969451904300,55.2499504089355500,55,98,102,79,82,15524,0,0,0,0,2147123520,2147771904,2147575625,2147569819,282,3,13,25259
1359375032,5812,1013.5999755859375000,41.8094787597656250,572.0103149414062000,4.1130728721618650,55.3672218322753900,55,98,100,77,82,15527,0,0,0,0,2147119917,2147775945,2147575899,2147566610,258,2,13,8127
1359378632,5809,1012.4000244140625000,42.3649711608886700,573.5003051757812000,4.0667362213134770,55.3033790588378900,55,98,100,78,81,15524,0,0,0,0,2147120512,2147776877,2147578733,2147567917,57,2,13,42929
1359382232,5812,1012.4899902343750000,42.6095199584960940,573.5192871093750000,4.0661449432373050,55.2712707519531250,55,99,100,79,82,15521,0,0,0,0,2147121481,2147774646,2147578240,2147567113,115,2,13,27160
1359385832,5808,1013.2899780273438000,42.4488182067871100,573.5230712890625000,4.0660271644592285,55.2890014648437500,54,104,99,79,83,15521,0,0,0,0,2147125650,2147772525,2147580059,2147569481,215,2,13,19275
1359389432,5805,1013.4600219726562000,42.8442001342773440,573.5374145507812000,4.0655798912048340,55.2368202209472660,54,98,100,78,83,15514,0,0,0,0,2147122075,2147771968,2147577289,2147568740,3359,2,13,34215
1359393032,5809,1011.2500000000000000,42.7573013305664060,573.7006835937500000,4.0605030059814450,55.2473793029785160,55,102,102,86,81,15522,0,0,0,0,2147122221,2147775780,2147574153,2147569499,153,3,13,20628
1359396632,5808,1011.2100219726562000,42.8599586486816400,573.9099121093750000,4.0539951324462890,55.2387809753418000,55,99,100,77,82,15521,0,0,0,0,2147120064,2147773019,2147577938,2147569252,3276,2,13,36199
1359400232,5807,1005.1300048828125000,43.1853103637695300,574.6942138671875000,4.0295939445495605,55.2019996643066400,55,98,100,78,83,15520,0,0,0,0,2147122715,2147771794,2147575954,2147565257,3382,2,13,27246
1359400557,5809,1004.3499755859375000,43.1148796081543000,574.7052001953125000,4.0292491912841800,55.2066001892089840,54,100,99,78,81,15520,0,0,0,0,2147127341,2147776932,2147576045,2147567241,105,2,13,40020
